EN

Hourly Weather Alviano

Today, 22 January, Friday

Time Temperature Precipitation Wind Pressure Humidity
00:00 +9°C° 0.1 mm 3 mps 733 mmHg 89%
01:00 +10°C° 0.1 mm 4 mps 733 mmHg 89%
02:00 +8°C° 0.1 mm 4 mps 732 mmHg 91%
03:00 +8°C° 0.1 mm 4 mps 732 mmHg 93%
04:00 +8°C° 0.1 mm 4 mps 731 mmHg 94%
05:00 +8°C° 0.1 mm 4 mps 731 mmHg 95%
06:00 +8°C° 0.1 mm 4 mps 731 mmHg 95%
07:00 +8°C° 0.1 mm 4 mps 730 mmHg 95%
08:00 +9°C° 0.1 mm 5 mps 730 mmHg 93%
09:00 +10°C° 0.1 mm 5 mps 730 mmHg 90%
10:00 +10°C° 0.1 mm 5 mps 730 mmHg 88%
11:00 +10°C° 0.3 mm 6 mps 730 mmHg 88%
12:00 +10°C° 0.3 mm 6 mps 729 mmHg 87%
13:00 +11°C° 0.3 mm 7 mps 728 mmHg 87%
14:00 +10°C° 1.9 mm 7 mps 728 mmHg 89%
15:00 +10°C° 1.9 mm 6 mps 727 mmHg 92%
16:00 +10°C° 1.9 mm 6 mps 726 mmHg 94%
17:00 +10°C° 2.1 mm 7 mps 725 mmHg 94%
18:00 +10°C° 2.1 mm 8 mps 725 mmHg 93%
19:00 +10°C° 2.1 mm 9 mps 724 mmHg 93%
20:00 +9°C° 2.1 mm 8 mps 724 mmHg 91%
21:00 +9°C° 2.1 mm 7 mps 724 mmHg 88%
22:00 +8°C° 2.1 mm 7 mps 723 mmHg 86%
23:00 +8°C° 0.1 mm 7 mps 723 mmHg 86%

Tomorrow, 23 January, Saturday

Time Temperature Precipitation Wind Pressure Humidity
00:00 +7°C° 0.1 mm 6 mps 723 mmHg 86%
01:00 +7°C° 0.1 mm 6 mps 723 mmHg 86%
02:00 +7°C° 0.1 mm 6 mps 723 mmHg 86%
03:00 +6°C° 0.1 mm 7 mps 722 mmHg 85%
04:00 +5°C° 0.1 mm 7 mps 722 mmHg 84%
05:00 +5°C° 0 mm 7 mps 722 mmHg 83%
06:00 +5°C° 0 mm 6 mps 722 mmHg 81%
07:00 +4°C° 0 mm 6 mps 722 mmHg 80%
08:00 +5°C° 0.1 mm 6 mps 722 mmHg 78%
09:00 +6°C° 0.1 mm 5 mps 722 mmHg 75%
10:00 +7°C° 0.1 mm 5 mps 723 mmHg 73%
11:00 +8°C° 0.1 mm 6 mps 723 mmHg 69%
12:00 +8°C° 0.1 mm 7 mps 723 mmHg 66%
13:00 +8°C° 0.1 mm 7 mps 723 mmHg 62%
14:00 +8°C° 0.3 mm 6 mps 723 mmHg 66%
15:00 +8°C° 0.3 mm 5 mps 722 mmHg 71%
16:00 +7°C° 0.3 mm 4 mps 722 mmHg 75%
17:00 +7°C° 0.2 mm 4 mps 722 mmHg 78%
18:00 +7°C° 0.2 mm 3 mps 723 mmHg 81%
19:00 +5°C° 0.2 mm 3 mps 723 mmHg 84%
20:00 +5°C° 0.5 mm 3 mps 723 mmHg 84%
21:00 +5°C° 0.5 mm 3 mps 723 mmHg 85%
22:00 +5°C° 0.5 mm 4 mps 723 mmHg 85%
23:00 +4°C° 0.1 mm 4 mps 723 mmHg 84%

Day after tomorrow, 24 January, Sunday

Time Temperature Precipitation Wind Pressure Humidity
00:00 +4°C° 0.1 mm 3 mps 723 mmHg 84%
01:00 +4°C° 0.1 mm 3 mps 723 mmHg 83%
02:00 +3°C° 0 mm 3 mps 723 mmHg 82%
03:00 +4°C° 0 mm 2 mps 723 mmHg 81%
04:00 +4°C° 0 mm 2 mps 723 mmHg 80%
05:00 +4°C° 0 mm 2 mps 723 mmHg 83%
06:00 +4°C° 0 mm 2 mps 723 mmHg 85%
07:00 +4°C° 0 mm 2 mps 723 mmHg 88%
08:00 +5°C° 0.1 mm 2 mps 723 mmHg 89%
09:00 +6°C° 0.1 mm 2 mps 722 mmHg 90%
10:00 +7°C° 0.1 mm 2 mps 722 mmHg 91%
11:00 +7°C° 1.6 mm 2 mps 722 mmHg 92%
12:00 +7°C° 1.6 mm 2 mps 721 mmHg 94%
13:00 +8°C° 1.6 mm 1 mps 720 mmHg 95%
14:00 +7°C° 0.9 mm 2 mps 721 mmHg 94%
15:00 +6°C° 0.9 mm 2 mps 721 mmHg 93%
16:00 +6°C° 0.9 mm 2 mps 721 mmHg 92%
17:00 +6°C° 0.1 mm 2 mps 721 mmHg 92%
18:00 +5°C° 0.1 mm 2 mps 722 mmHg 92%
19:00 +4°C° 0.1 mm 2 mps 722 mmHg 93%
20:00 +4°C° 0 mm 2 mps 723 mmHg 93%
21:00 +4°C° 0 mm 1 mps 723 mmHg 93%
22:00 +4°C° 0 mm 1 mps 724 mmHg 94%
23:00 +4°C° 0 mm 1 mps 724 mmHg 93%

25 January, Monday

Time Temperature Precipitation Wind Pressure Humidity
00:00 +4°C° 0 mm 1 mps 724 mmHg 92%
01:00 +4°C° 0 mm 1 mps 725 mmHg 92%
02:00 +4°C° 0.4 mm 1 mps 724 mmHg 92%
03:00 +4°C° 0.4 mm 1 mps 724 mmHg 92%
04:00 +3°C° 0.4 mm 2 mps 724 mmHg 92%
05:00 +3°C° 0.2 mm 2 mps 724 mmHg 89%
06:00 +2°C° 0.2 mm 3 mps 724 mmHg 86%
07:00 +1°C° 0.2 mm 4 mps 724 mmHg 83%
08:00 +3°C° 0.2 mm 4 mps 725 mmHg 83%
09:00 +3°C° 0.2 mm 4 mps 726 mmHg 84%
10:00 +4°C° 0.2 mm 4 mps 726 mmHg 85%
11:00 +5°C° 0.2 mm 4 mps 727 mmHg 80%
12:00 +5°C° 0.2 mm 4 mps 728 mmHg 76%
13:00 +6°C° 0.2 mm 4 mps 729 mmHg 71%
14:00 +5°C° 0.4 mm 3 mps 729 mmHg 73%
15:00 +5°C° 0.4 mm 3 mps 730 mmHg 75%
16:00 +5°C° 0.4 mm 2 mps 731 mmHg 76%
17:00 +4°C° 0 mm 2 mps 731 mmHg 79%
18:00 +4°C° 0 mm 1 mps 732 mmHg 81%
19:00 +2°C° 0 mm 1 mps 733 mmHg 84%
20:00 +2°C° 0 mm 1 mps 733 mmHg 84%
21:00 +1°C° 0 mm 0 mps 733 mmHg 84%
22:00 +1°C° 0 mm 0 mps 734 mmHg 83%
23:00 +1°C° 0 mm 0 mps 734 mmHg 83%

26 January, Tuesday

Time Temperature Precipitation Wind Pressure Humidity
00:00 0°C° 0 mm 0 mps 734 mmHg 83%
01:00 +1°C° 0 mm 1 mps 734 mmHg 83%
02:00 0°C° 0 mm 0 mps 734 mmHg 83%
03:00 0°C° 0 mm 0 mps 734 mmHg 82%
04:00 0°C° 0 mm 0 mps 734 mmHg 82%
05:00 0°C° 0 mm 0 mps 735 mmHg 81%
06:00 0°C° 0 mm 0 mps 735 mmHg 80%
07:00 0°C° 0 mm 0 mps 735 mmHg 79%
08:00 +2°C° 0 mm 1 mps 736 mmHg 74%
09:00 +4°C° 0 mm 1 mps 736 mmHg 69%
10:00 +6°C° 0 mm 1 mps 737 mmHg 63%
11:00 +7°C° 0 mm 1 mps 737 mmHg 59%
12:00 +8°C° 0 mm 1 mps 737 mmHg 55%
13:00 +9°C° 0 mm 1 mps 737 mmHg 51%
14:00 +9°C° 0 mm 1 mps 737 mmHg 54%
15:00 +9°C° 0 mm 1 mps 737 mmHg 58%
16:00 +8°C° 0 mm 1 mps 737 mmHg 62%
17:00 +7°C° 0 mm 1 mps 737 mmHg 67%
18:00 +5°C° 0 mm 1 mps 737 mmHg 72%
19:00 +3°C° 0 mm 1 mps 737 mmHg 77%
20:00 +2°C° 0 mm 0 mps 737 mmHg 77%
21:00 +1°C° 0 mm 0 mps 738 mmHg 78%
22:00 +1°C° 0 mm 0 mps 738 mmHg 78%
23:00 +1°C° 0 mm 0 mps 738 mmHg 77%

27 January, Wednesday

Time Temperature Precipitation Wind Pressure Humidity
00:00 +1°C° 0 mm 0 mps 738 mmHg 76%
01:00 +1°C° 0 mm 0 mps 737 mmHg 75%
02:00 +2°C° 0 mm 1 mps 737 mmHg 74%
03:00 +2°C° 0 mm 1 mps 737 mmHg 73%
04:00 +3°C° 0 mm 1 mps 736 mmHg 72%
05:00 +2°C° 0 mm 1 mps 736 mmHg 72%
06:00 +2°C° 0 mm 1 mps 736 mmHg 72%
07:00 +1°C° 0 mm 1 mps 736 mmHg 72%
08:00 +3°C° 0 mm 1 mps 736 mmHg 67%
09:00 +3°C° 0 mm 0 mps 736 mmHg 61%
10:00 +5°C° 0 mm 0 mps 736 mmHg 56%
11:00 +7°C° 0 mm 1 mps 736 mmHg 56%
12:00 +8°C° 0 mm 1 mps 736 mmHg 56%
13:00 +9°C° 0 mm 1 mps 736 mmHg 56%
14:00 +9°C° 0 mm 1 mps 736 mmHg 60%
15:00 +9°C° 0 mm 1 mps 736 mmHg 63%
16:00 +8°C° 0 mm 0 mps 736 mmHg 67%
17:00 +6°C° 0 mm 0 mps 736 mmHg 71%
18:00 +5°C° 0 mm 1 mps 736 mmHg 76%
19:00 +3°C° 0 mm 1 mps 737 mmHg 80%
20:00 +3°C° 0 mm 1 mps 737 mmHg 81%
21:00 +3°C° 0 mm 1 mps 737 mmHg 82%
22:00 +3°C° 0 mm 1 mps 738 mmHg 83%
23:00 +2°C° 0 mm 1 mps 738 mmHg 84%
Show more